Location: New Greens
(51.7702°N, 0.3379°W)
Time: 20:04:21
(UTC+00:00)

Tianhe-1 - Visible Passes

Search period start: 23 June 2021 00:00
Search period end: 03 July 2021 00:00
Orbit: 375 x 386 km, 41.5° (Epoch: 23 June)

Date Brightness Start Highest point End Pass type
(mag) Time Alt. Az. Time Alt. Az. Time Alt. Az.
25 Jun 3.3 02:34:02 10° SSW 02:35:18 12° S 02:36:34 10° SSE visible
27 Jun 3.1 02:09:25 13° S 02:09:35 13° S 02:11:06 10° SSE visible
28 Jun 3.2 02:43:19 10° SSW 02:44:39 12° S 02:46:01 10° SSE visible
29 Jun 3.5 01:45:18 10° SSE 01:45:18 10° SSE 01:45:20 10° SSE visible
